Weather History for Vancouver, BC

Change the Weather History Date:

Saturday, November 3, 2012

  Actual Average Record
Temperature  
Mean Temperature 52 °F -  
Max Temperature 54 °F 49 °F 57 °F (1997)
Min Temperature 51 °F 39 °F 26 °F (2002)
Degree Days  
Heating Degree Days 12    
Growing Degree Days 2 (Base 50)    
Moisture  
Dew Point 51 °F    
Average Humidity 93    
Maximum Humidity 100    
Minimum Humidity 88    
Precipitation  
Precipitation 0.47 in - - ()
Sea Level Pressure  
Sea Level Pressure 30.01 in    
Wind  
Wind Speed 7 mph ()    
Max Wind Speed 14 mph    
Max Gust Speed -    
Visibility 5.0 miles    
Events Rain    
Averages and records for this station are not official NWS values.
T = Trace of Precipitation, MM = Missing Value Source: Averaged Metar Reports

Daily Weather History Graph

Daily Weather History Graph

Search for Another Location

Airport:

Trip Planner

Search our weather history database for the weather conditions in past years. The results will help you decide how hot, cold, wet, or windy it might be!

Date:

Astronomy

Nov. 03, 2012 Rise Set
Actual Time 8:04 AM PDT 5:47 PM PDT
Civil Twilight 7:30 AM PDT 6:20 PM PDT
Nautical Twilight 6:53 AM PDT 6:58 PM PDT
Astronomical Twilight 6:16 AM PDT 7:35 PM PDT
Moon 9:25 PM PDT (11/3) 12:21 PM PDT (11/3)
Length of Visible Light 10h 49m
Length of Day
9h 42m
Waning Gibbous, 79% of the Moon is Illuminated
Nov 3
Waning Gibbous
Nov 6
Last Quarter
Nov 13
New
Nov 20
First Quarter
Nov 28
Full

Hourly Weather History & Observations

Time (PDT) Temp. Dew Point Humidity Pressure Visibility Wind Dir Wind Speed Gust Speed Precip Events Conditions
12:00 AM 53.6 °F 50.0 °F 88% 29.94 in 8.0 mi East 11.5 mph - N/A Rain Light Rain Showers
1:00 AM 53.6 °F 50.0 °F 88% 29.94 in 8.0 mi East 12.7 mph - N/A Rain Light Rain Showers
2:00 AM 51.8 °F 50.0 °F 94% 29.94 in 6.0 mi East 10.4 mph - N/A Rain Light Rain Showers
3:00 AM 51.8 °F 50.0 °F 94% 29.94 in 6.0 mi East 10.4 mph - N/A Rain Light Rain Showers
4:00 AM 51.8 °F 50.0 °F 94% 29.94 in 6.0 mi East 9.2 mph - N/A Rain Light Rain Showers
5:00 AM 52 °F 51 °F 93% 29.94 in 6 mi East 9.2 mph - - Rain Light Rain Showers
5:00 AM 51.8 °F 50.0 °F 94% 29.94 in 6.0 mi East 9.2 mph - N/A Rain Light Rain Showers
6:00 AM 51.8 °F 50.0 °F 94% 29.95 in 6.0 mi ESE 10.4 mph - N/A Rain Light Rain Showers
6:49 AM 51.8 °F - N/A% - 8.0 mi ESE 13.8 mph - N/A   Overcast
7:00 AM 51.8 °F 50.0 °F 94% 29.95 in 8.0 mi ESE 9.2 mph - N/A   Overcast
8:00 AM 53.6 °F 50.0 °F 88% 29.96 in 8.0 mi ESE 12.7 mph - N/A   Overcast
8:32 AM 53.6 °F - N/A% - 8.0 mi SE 11.5 mph - N/A Rain Light Rain Showers
9:00 AM 53.6 °F 50.0 °F 88% 29.97 in 8.0 mi ESE 9.2 mph - N/A Rain Light Rain Showers
10:00 AM 51.8 °F 50.0 °F 94% 29.97 in 3.0 mi SE 10.4 mph - N/A Rain Light Rain Showers
11:00 AM 53 °F 51 °F 89% 29.98 in 3 mi South 5.8 mph - - Rain Light Rain
11:00 AM 53.6 °F 50.0 °F 88% 29.98 in 3.0 mi South 6.9 mph - N/A Rain Light Rain
12:00 PM 53.6 °F 50.0 °F 88% 30.00 in 3.0 mi South 6.9 mph - N/A Rain Light Rain
12:34 PM 53.6 °F - N/A% - 4.0 mi South 5.8 mph - N/A Rain Light Rain
1:00 PM 53.6 °F 51.8 °F 94% 30.01 in 5.0 mi SSW 4.6 mph - N/A Rain Light Rain
2:00 PM 53.6 °F 51.8 °F 94% 30.01 in 4.0 mi Calm Calm - N/A Rain Light Rain
2:38 PM 53.6 °F - N/A% - 4.0 mi Calm Calm - N/A Rain Light Rain
2:51 PM 53.6 °F - N/A% - 4.0 mi Calm Calm - N/A Rain Light Rain
3:00 PM 53.6 °F 51.8 °F 94% 30.01 in 5.0 mi Calm Calm - N/A Rain Light Rain
3:12 PM 53.6 °F - N/A% - 5.0 mi Calm Calm - N/A Rain Light Rain
4:00 PM 53.6 °F 51.8 °F 94% 30.02 in 5.0 mi Calm Calm - N/A Rain Light Rain
4:14 PM 53.6 °F - N/A% - 3.0 mi Calm Calm - N/A Rain Light Rain
5:00 PM 53 °F 51 °F 92% 30.05 in 4 mi WNW 2.3 mph - - Rain Light Rain
5:00 PM 53.6 °F 51.8 °F 94% 30.05 in 4.0 mi Calm Calm - N/A Rain Light Rain
5:51 PM 53.6 °F - N/A% - 4.0 mi NNW 3.5 mph - N/A Rain Light Rain
6:00 PM 53.6 °F 51.8 °F 94% 30.05 in 4.0 mi NW 3.5 mph - N/A Rain Light Rain
7:00 PM 53.6 °F 51.8 °F 94% 30.07 in 5.0 mi North 3.5 mph - N/A Rain Light Rain
7:41 PM 53.6 °F - N/A% - 8.0 mi Calm Calm - N/A   Overcast
8:00 PM 53.6 °F 51.8 °F 94% 30.09 in 8.0 mi Calm Calm - N/A   Overcast
9:00 PM 51.8 °F 51.8 °F 100% 30.11 in 10.0 mi Calm Calm - N/A   Overcast
9:53 PM 51.8 °F - N/A% - 1.0 mi South 3.5 mph - N/A   Overcast
10:00 PM 51.8 °F 51.8 °F 100% 30.14 in 1.0 mi South 3.5 mph - N/A   Mist
10:05 PM 51.8 °F - N/A% - 0.8 mi SSE 3.5 mph - N/A   Mist
10:32 PM 51.8 °F - N/A% - 1.0 mi SSE 5.8 mph - N/A Rain Light Rain Showers
10:49 PM 51.8 °F - N/A% - 3.0 mi SE 3.5 mph - N/A Rain Light Rain Showers
11:00 PM 52 °F 51 °F 94% 30.15 in 5 mi ESE 3.5 mph - - Rain Light Rain Showers
11:00 PM 51.8 °F 50.0 °F 94% 30.15 in 5.0 mi ESE 3.5 mph - N/A Rain Light Rain Showers